Temp
7 7 7 6 6 6 6 6 6 6 6 6 6 6 6 6 6 6 6 6 6 7 8 8 8 9 9 10 10 10 9 9 9 9 9 9 9 8 8 8 8 8 8 7 7 8 8
7 7 7 6 6 6 6 6 6 6 6 6 6 6 6 6 6 6 6 6 6 7 8 7 8 8 9 9 10 10 9 9 8 9 8 8 8 7 7 7 7 7 6 7 7 7 7
7 7 6 6 6 6 6 6 6 6 6 5 5 5 5 5 5 6 6 6 6 6 8 8 8 8 9 9 10 10 9 9 8 8 7 7 6 6 6 7 6 6 6 7 7 7 7
7 7 7 6 6 6 6 6 6 5 5 5 5 5 5 5 5 5 5 5 6 6 7 7 8 8 9 9 9 9 8 8 8 7 7 7 6 6 6 6 5 6 5 5 7 7 7
6 7 6 6 6 6 6 6 5 5 5 5 4 4 5 5 5 5 5 5 6 6 7 7 7 8 9 9 9 8 8 7 7 7 6 6 5 5 5 5 4 4 4 5 5 6 6
6 6 6 6 6 6 5 5 5 5 5 4 4 4 4 4 4 4 5 5 5 6 7 7 7 7 8 8 8 8 7 7 7 5 5 5 4 5 5 4 3 4 4 4 3 6 5
6 6 5 5 5 5 5 5 5 4 4 4 4 3 4 4 4 3 4 4 5 6 7 6 7 7 9 9 9 8 7 7 6 6 5 4 3 4 5 4 4 3 3 3 5 5 5
5 5 5 5 5 5 5 5 5 4 4 4 4 3 3 3 3 3 3 3 3 2 6 6 8 7 7 8 8 7 7 6 6 6 5 4 3 6 5 4 4 4 3 4 5 5 5
5 5 4 4 4 4 4 4 5 4 4 4 3 3 3 3 3 3 2 2 2 2 2 7 5 6 6 7 7 7 6 5 5 5 5 4 6 5 5 5 4 4 4 5 4 4 4
4 4 4 4 4 4 4 4 4 4 4 3 3 3 3 3 3 3 2 2 2 1 1 4 5 5 5 6 5 5 5 5 4 4 4 4 5 5 4 4 4 4 4 4 4 3 3
4 4 4 4 3 3 3 3 3 3 3 3 3 3 2 2 2 2 1 1 1 1 1 3 3 4 5 5 5 4 4 4 4 3 3 3 3 4 3 3 3 3 3 3 3 2 2
3 4 4 4 4 3 3 3 3 3 3 3 2 2 2 2 2 1 0 -0 -0 -0 0 3 2 3 3 3 3 3 3 2 2 2 2 2 2 2 3 3 3 2 2 2 2 1 1
3 3 3 3 4 3 3 2 2 2 2 2 2 2 2 2 2 1 1 0 -0 -0 2 1 2 2 1 1 2 2 2 1 1 1 1 1 2 1 2 2 1 1 0 0 1 0 2
3 2 2 2 2 2 2 2 2 2 2 2 2 2 2 1 1 0 1 -0 -2 0 1 1 0 -0 -1 -1 -1 -0 1 -0 -1 -1 -2 -1 0 1 1 0 -1 -0 -1 -0 -3 -1 1
2 2 3 2 2 2 2 2 2 2 2 2 2 1 1 1 1 1 0 -2 -1 -0 -1 -1 -1 -2 -2 -2 -2 -2 -2 -3 -3 -3 -3 -3 -2 -0 -1 -2 -2 -2 -2 -2 -3 -3 -2
3 2 2 2 2 2 2 2 2 2 1 1 1 1 1 0 -0 0 -1 -2 -2 -1 -2 -2 -3 -3 -4 -3 -3 -3 -3 -4 -5 -5 -5 -5 -5 -3 -3 -2 -2 -3 -3 -4 -3 -4 -3
2 2 2 1 2 2 2 1 2 2 2 1 1 0 1 0 -0 -1 -2 -2 -2 -2 -3 -4 -4 -4 -5 -5 -4 -4 -4 -5 -5 -5 -5 -6 -6 -4 -4 -4 -4 -5 -5 -5 -4 -4 -4
2 2 2 2 1 1 2 1 1 2 1 1 1 0 -0 -1 -2 -2 -3 -2 -3 -4 -4 -5 -5 -5 -5 -5 -5 -6 -6 -6 -6 -6 -7 -7 -8 -7 -6 -6 -5 -5 -6 -7 -6 -5 -6
2 2 2 1 1 1 1 1 2 1 1 1 0 -1 -2 -3 -3 -3 -3 -4 -5 -6 -6 -6 -6 -6 -6 -6 -6 -7 -7 -7 -7 -7 -8 -9 -8 -8 -7 -5 -6 -7 -7 -8 -8 -8 -7
2 2 2 2 1 1 1 1 1 0 -0 -1 -1 -2 -4 -4 -4 -4 -4 -5 -6 -6 -6 -6 -6 -7 -7 -7 -7 -8 -8 -8 -8 -9 -9 -9 -9 -9 -8 -8 -9 -9 -9 -9 -9 -8 -8
2 2 1 1 0 0 -0 -0 -0 -0 -0 -1 -2 -3 -3 -4 -4 -5 -6 -6 -6 -7 -7 -7 -8 -8 -8 -9 -9 -9 -10 -10 -9 -9 -10 -10 -11 -11 -10 -10 -10 -10 -9 -8 -9 -9 -9
1 1 1 1 0 -0 -0 -1 -1 -1 -1 -2 -3 -4 -4 -4 -5 -6 -7 -7 -7 -7 -8 -8 -8 -9 -9 -9 -10 -10 -10 -10 -10 -10 -10 -10 -11 -11 -11 -9 -11 -11 -10 -9 -8 -8 -9
0 -0 -0 -0 -0 -1 -1 -2 -3 -3 -3 -4 -4 -4 -5 -6 -6 -7 -7 -8 -8 -8 -9 -9 -9 -10 -10 -10 -11 -11 -11 -10 -10 -10 -9 -11 -11 -12 -11 -10 -10 -10 -7 -8 -8 -8 -8
-1 -0 -1 -2 -2 -3 -3 -4 -4 -4 -4 -4 -5 -6 -6 -7 -7 -8 -8 -8 -8 -9 -9 -10 -10 -11 -11 -11 -11 -11 -10 -10 -9 -9 -10 -10 -11 -11 -10 -10 -10 -7 -8 -9 -8 -8 -7
-2 -2 -3 -3 -4 -4 -4 -4 -4 -4 -5 -6 -6 -7 -7 -7 -8 -8 -9 -9 -9 -10 -10 -11 -11 -11 -11 -11 -11 -11 -10 -10 -10 -10 -10 -10 -11 -11 -10 -9 -9 -9 -8 -8 -8 -7 -7
-3 -4 -4 -4 -4 -5 -5 -5 -6 -7 -7 -7 -7 -8 -8 -8 -9 -9 -9 -10 -10 -10 -11 -11 -11 -11 -12 -12 -12 -12 -12 -11 -11 -10 -10 -10 -11 -11 -11 -10 -9 -9 -8 -8 -8 -7 -7
-5 -5 -4 -5 -6 -6 -7 -7 -7 -7 -7 -8 -8 -8 -9 -9 -10 -10 -10 -10 -11 -11 -11 -11 -12 -12 -12 -12 -13 -13 -12 -12 -12 -11 -11 -11 -11 -11 -11 -11 -10 -9 -9 -8 -9 -8 -8
-6 -6 -6 -6 -7 -7 -7 -7 -8 -8 -9 -9 -9 -10 -10 -10 -10 -10 -11 -11 -11 -11 -12 -12 -12 -12 -12 -13 -13 -13 -13 -13 -13 -12 -12 -12 -12 -11 -11 -11 -11 -9 -9 -10 -9 -8 -8
-6 -7 -7 -7 -7 -8 -8 -9 -10 -10 -10 -10 -11 -11 -11 -11 -11 -11 -11 -12 -12 -12 -12 -12 -12 -13 -13 -14 -14 -14 -14 -14 -13 -13 -12 -12 -12 -12 -12 -11 -10 -10 -10 -10 -10 -9 -8
Height
3156 3156 3157 3158 3157 3158 3158 3158 3159 3159 3160 3160 3161 3159 3157 3155 3152 3148 3146 3144 3142 3138 3136 3133 3130 3128 3126 3126 3123 3121 3119 3117 3116 3115 3114 3113 3111 3111 3110 3110 3108 3104 3105 3104 3103 3104 3101
3151 3153 3152 3154 3152 3153 3153 3155 3154 3155 3156 3155 3156 3156 3155 3153 3150 3145 3142 3140 3137 3135 3132 3129 3126 3124 3122 3121 3118 3115 3114 3112 3111 3110 3109 3109 3108 3107 3105 3105 3103 3100 3098 3098 3096 3096 3094
3145 3147 3148 3148 3148 3149 3149 3150 3149 3151 3151 3150 3151 3151 3149 3149 3146 3143 3139 3136 3133 3130 3128 3125 3122 3118 3116 3115 3112 3110 3108 3108 3108 3107 3105 3105 3104 3104 3102 3101 3097 3096 3093 3092 3093 3091 3088
3140 3142 3142 3143 3142 3143 3143 3145 3145 3145 3147 3145 3145 3146 3144 3143 3141 3138 3136 3131 3128 3125 3123 3119 3115 3112 3110 3108 3107 3106 3105 3104 3103 3102 3101 3100 3098 3098 3098 3097 3095 3093 3089 3088 3090 3087 3084
3134 3136 3136 3136 3137 3137 3138 3139 3139 3140 3141 3141 3141 3140 3138 3137 3135 3133 3130 3126 3122 3119 3117 3114 3110 3106 3105 3103 3102 3099 3097 3097 3095 3094 3093 3092 3092 3093 3093 3091 3090 3087 3084 3083 3079 3082 3079
3129 3131 3131 3131 3131 3132 3132 3132 3133 3134 3134 3135 3135 3135 3133 3131 3129 3126 3123 3119 3115 3111 3110 3107 3103 3103 3098 3097 3093 3089 3088 3087 3087 3086 3087 3086 3084 3083 3084 3086 3083 3083 3083 3079 3075 3075 3072
3123 3124 3126 3125 3125 3125 3126 3126 3126 3127 3127 3127 3129 3128 3127 3125 3123 3119 3116 3111 3108 3102 3102 3103 3098 3092 3089 3085 3081 3082 3079 3078 3079 3080 3079 3079 3080 3078 3081 3081 3081 3078 3076 3074 3073 3072 3064
3116 3118 3119 3118 3119 3119 3119 3120 3120 3120 3121 3120 3122 3122 3120 3119 3118 3115 3110 3106 3102 3093 3085 3090 3086 3080 3080 3078 3077 3075 3074 3074 3074 3074 3074 3074 3065 3070 3072 3072 3073 3072 3070 3069 3067 3067 3062
3110 3111 3111 3111 3112 3112 3112 3112 3113 3113 3114 3114 3116 3116 3114 3113 3113 3111 3107 3103 3098 3089 3084 3083 3077 3077 3077 3076 3075 3073 3072 3070 3070 3069 3069 3066 3067 3066 3066 3065 3066 3066 3065 3063 3063 3060 3058
3102 3103 3104 3104 3105 3105 3105 3105 3105 3106 3106 3108 3109 3109 3109 3108 3109 3105 3102 3098 3094 3088 3080 3078 3077 3074 3074 3072 3072 3071 3070 3071 3069 3067 3064 3063 3063 3062 3062 3062 3064 3059 3061 3059 3056 3057 3053
3095 3096 3097 3097 3098 3099 3097 3097 3097 3098 3100 3101 3101 3103 3102 3102 3100 3099 3097 3094 3091 3090 3085 3076 3074 3074 3074 3076 3074 3071 3070 3067 3065 3065 3065 3062 3060 3059 3060 3059 3060 3055 3055 3054 3051 3049 3049
3086 3088 3089 3090 3089 3091 3091 3090 3091 3091 3093 3093 3095 3095 3095 3094 3093 3092 3090 3089 3089 3091 3080 3073 3070 3069 3071 3071 3071 3069 3068 3065 3062 3057 3057 3055 3058 3058 3055 3053 3053 3050 3047 3045 3044 3044 3043
3077 3079 3081 3082 3081 3083 3083 3083 3084 3085 3085 3086 3086 3087 3088 3086 3086 3086 3085 3084 3085 3082 3076 3069 3067 3065 3066 3064 3064 3065 3063 3061 3060 3056 3053 3051 3050 3051 3049 3047 3044 3043 3044 3043 3039 3036 3029
3067 3071 3072 3073 3074 3075 3075 3074 3075 3077 3078 3078 3078 3079 3079 3078 3078 3078 3077 3077 3075 3070 3068 3064 3063 3060 3058 3059 3057 3056 3057 3057 3055 3052 3049 3047 3042 3045 3043 3041 3041 3039 3042 3043 3038 3031 3024
3059 3060 3061 3062 3064 3067 3068 3066 3067 3070 3071 3071 3071 3070 3069 3070 3069 3069 3070 3068 3064 3063 3060 3058 3059 3053 3051 3051 3054 3052 3049 3048 3046 3044 3048 3044 3037 3039 3037 3036 3038 3036 3037 3037 3032 3028 3025
3048 3049 3050 3052 3055 3056 3057 3058 3059 3061 3062 3062 3062 3061 3059 3059 3059 3059 3060 3055 3055 3054 3055 3053 3055 3052 3047 3047 3051 3051 3048 3046 3045 3044 3042 3041 3035 3031 3030 3031 3033 3032 3031 3029 3028 3020 3007
3037 3039 3041 3042 3044 3045 3047 3048 3050 3052 3052 3052 3051 3049 3048 3048 3048 3049 3047 3047 3046 3046 3047 3049 3047 3046 3044 3043 3044 3045 3044 3043 3042 3042 3040 3038 3037 3024 3025 3028 3028 3028 3025 3024 3022 3017 3003
3027 3029 3031 3032 3032 3034 3036 3038 3040 3041 3041 3041 3040 3038 3037 3036 3039 3036 3039 3041 3040 3038 3038 3040 3041 3042 3039 3040 3039 3041 3043 3039 3039 3038 3038 3037 3035 3023 3016 3020 3022 3018 3017 3016 3010 3004 3000
3016 3019 3019 3020 3021 3023 3026 3026 3027 3029 3029 3030 3028 3028 3028 3028 3029 3029 3030 3031 3031 3033 3034 3034 3036 3037 3036 3036 3039 3034 3037 3037 3036 3037 3036 3036 3035 3027 3003 3008 3015 3015 3010 3010 3009 3001 2989
3006 3006 3009 3011 3013 3014 3017 3017 3017 3017 3017 3019 3019 3021 3020 3020 3021 3023 3024 3024 3025 3025 3028 3030 3031 3030 3032 3032 3032 3030 3029 3030 3029 3031 3032 3031 3028 3028 3023 3015 3010 3001 3000 3001 3001 2989 2978
2996 2997 2997 3000 3003 3004 3006 3007 3008 3007 3008 3010 3011 3012 3013 3012 3013 3016 3018 3019 3020 3021 3022 3024 3023 3025 3026 3026 3025 3024 3023 3021 3023 3023 3023 3022 3018 3018 3012 3012 3007 2996 2986 2980 2980 2976 2974
2986 2988 2990 2992 2992 2993 2995 2996 2997 2998 2999 3003 3006 3008 3008 3008 3009 3012 3013 3014 3017 3017 3018 3017 3018 3019 3019 3022 3021 3018 3017 3014 3014 3016 3015 3014 3007 3007 2998 2999 2998 2990 2978 2972 2964 2959 2954
2974 2976 2979 2981 2982 2985 2987 2987 2992 2992 2995 2997 2999 3000 3001 3003 3004 3007 3008 3009 3009 3012 3013 3013 3015 3015 3014 3017 3017 3016 3013 3009 3006 3006 3006 3006 3002 3000 2991 2991 2989 2978 2968 2966 2958 2957 2952
2967 2969 2972 2974 2976 2981 2983 2982 2986 2988 2990 2993 2992 2994 2995 2995 2998 3003 3003 3004 3005 3008 3009 3009 3009 3010 3009 3009 3010 3010 3008 3004 3001 2999 3000 2997 2998 2994 2987 2986 2978 2965 2966 2959 2951 2946 2944
2961 2962 2965 2969 2974 2977 2979 2979 2980 2981 2983 2987 2987 2990 2992 2991 2994 2998 3000 3001 3000 3001 3003 3005 3003 3002 3002 3004 3004 3003 3001 2998 2995 2993 2994 2994 2994 2990 2985 2979 2968 2959 2958 2953 2948 2938 2939
2957 2958 2961 2967 2971 2973 2974 2975 2977 2977 2980 2983 2984 2986 2988 2988 2989 2993 2995 2995 2997 2998 2998 2998 2998 2996 2997 2996 2998 2998 2998 2996 2993 2991 2990 2990 2989 2989 2983 2977 2966 2957 2955 2951 2945 2936 2934
2958 2959 2960 2964 2968 2970 2971 2973 2974 2975 2977 2979 2980 2981 2983 2985 2986 2988 2989 2990 2992 2993 2993 2994 2992 2992 2993 2992 2993 2993 2994 2993 2990 2987 2985 2985 2983 2981 2977 2974 2963 2956 2951 2945 2942 2939 2927
2956 2960 2959 2960 2963 2966 2967 2967 2969 2971 2972 2974 2974 2976 2981 2981 2982 2982 2984 2987 2987 2988 2988 2987 2989 2987 2986 2989 2990 2989 2988 2987 2984 2982 2981 2981 2980 2976 2972 2969 2958 2952 2946 2947 2942 2931 2927
2955 2957 2956 2956 2958 2959 2960 2962 2965 2966 2967 2968 2972 2973 2976 2978 2977 2977 2979 2980 2982 2983 2985 2981 2983 2983 2983 2984 2985 2984 2983 2981 2979 2977 2975 2976 2974 2971 2970 2960 2953 2950 2945 2939 2934 2932 2928
Wind_Speed
25 24 24 27 24 26 24 24 25 23 23 21 21 20 20 21 21 21 23 27 30 28 30 29 25 24 20 18 20 22 19 20 20 20 19 20 19 20 22 23 25 28 28 26 27 26 28
25 26 25 27 25 26 25 27 25 26 25 23 23 24 23 25 25 25 26 30 30 30 32 31 28 27 23 25 23 20 22 22 18 16 16 19 20 21 22 23 24 27 28 28 29 27 28
26 27 28 27 26 28 27 29 26 28 27 25 25 24 23 26 28 29 30 33 35 32 35 34 32 29 27 27 22 15 13 14 14 17 17 19 22 21 22 23 25 24 29 30 25 23 26
27 28 27 27 28 29 29 31 28 29 30 28 26 25 25 26 30 32 36 38 37 35 37 34 34 30 28 23 15 19 15 17 19 18 19 22 22 23 24 25 25 26 30 29 23 16 20
26 28 27 27 29 30 30 31 31 30 30 30 28 27 26 29 33 35 38 41 42 40 42 41 33 27 26 18 21 25 26 25 26 26 23 23 22 23 25 26 25 24 25 28 26 21 25
24 26 27 27 29 31 31 31 31 32 31 31 28 30 29 31 33 37 40 44 44 44 44 38 26 31 19 29 31 31 31 28 28 30 25 25 26 26 28 26 21 18 21 20 23 19 21
27 28 28 28 28 29 31 32 33 32 32 32 29 31 33 33 36 40 43 47 48 49 45 39 37 37 31 27 30 29 31 32 31 29 28 28 28 33 30 25 26 28 26 28 20 16 25
29 29 31 31 32 31 32 33 34 33 33 33 31 32 35 35 37 41 44 45 46 51 53 41 35 22 12 12 12 12 12 17 21 26 26 29 35 27 27 29 25 19 22 26 25 14 25
31 30 31 33 34 32 31 32 34 34 34 33 32 33 36 37 38 40 41 41 43 50 48 35 14 9 8 8 8 11 11 11 12 16 18 24 19 12 13 18 20 23 26 23 24 26 31
33 32 33 34 36 35 34 35 35 34 34 34 32 34 35 36 37 37 37 39 42 40 32 12 12 9 13 15 9 12 11 13 13 12 14 15 12 18 23 26 23 26 18 24 26 26 20
36 36 37 36 38 40 36 36 35 34 33 33 33 32 34 35 36 34 37 35 36 36 8 15 5 9 11 14 17 15 13 13 13 15 17 16 17 12 17 17 16 28 26 25 25 25 27
37 37 37 38 39 42 39 37 37 33 33 32 32 32 34 37 36 34 34 34 35 14 8 7 10 17 19 18 19 19 16 18 19 20 21 25 23 24 25 28 29 31 35 34 28 23 16
43 38 39 41 43 41 39 37 36 34 32 33 32 34 36 35 36 34 36 35 18 7 9 10 11 18 26 24 24 24 20 18 15 18 22 32 36 27 27 27 21 14 5 4 4 5 10
47 49 44 43 46 41 40 34 33 34 35 33 33 33 34 36 37 38 42 31 12 17 20 31 35 37 34 26 24 23 19 15 17 20 22 16 20 14 16 15 11 15 10 8 6 8 17
49 49 47 48 46 39 40 36 35 34 33 32 33 36 39 36 37 41 39 24 18 24 23 25 28 27 18 13 13 15 14 14 12 7 11 9 18 17 17 20 20 15 21 17 21 29 22
47 45 46 43 43 43 41 39 37 35 35 36 37 42 42 41 40 39 36 34 28 28 34 33 24 16 16 14 14 12 7 5 7 10 6 5 19 22 20 24 19 12 8 6 5 5 9
46 44 45 47 45 44 43 38 37 37 39 39 37 37 43 42 42 36 31 33 31 31 29 24 23 23 23 20 17 16 8 10 14 16 14 19 18 30 33 27 16 20 27 24 25 22 11
42 41 45 43 47 44 43 41 42 41 39 42 41 45 41 39 31 31 33 31 31 28 23 22 19 15 18 19 18 13 8 10 12 23 16 9 11 30 36 33 30 21 18 12 9 9 19
41 47 49 46 40 33 36 35 36 34 41 41 47 46 37 32 27 29 31 29 23 20 19 17 13 12 13 13 8 8 8 14 15 17 11 21 10 22 36 21 2 17 36 34 29 31 31
45 40 44 39 36 35 36 38 43 41 33 35 41 34 28 29 31 30 25 24 21 16 11 12 13 15 19 23 23 15 22 18 21 26 22 17 16 16 23 36 42 46 42 37 34 33 38
37 33 33 35 29 28 29 31 31 33 39 37 36 33 33 21 26 25 22 16 13 15 15 18 19 22 20 19 21 23 22 23 26 27 22 18 21 22 32 31 36 44 49 48 46 46 41
27 32 35 37 28 31 33 35 36 35 34 33 33 31 27 25 19 20 25 20 20 20 18 20 20 22 21 24 23 25 23 24 28 31 25 26 25 25 40 38 33 39 47 49 50 49 47
34 34 32 29 27 30 28 27 29 29 31 30 28 27 23 20 19 19 20 19 18 18 19 20 20 21 22 20 21 24 26 26 28 28 27 30 23 18 29 32 24 27 22 23 35 36 37
28 30 30 27 23 22 24 24 27 27 25 23 19 18 16 16 15 16 18 17 18 19 18 18 18 18 20 22 25 25 25 25 22 18 16 23 17 16 19 18 8 18 21 24 26 29 29
25 16 14 15 18 21 24 24 23 21 17 15 15 17 17 18 17 17 17 19 18 18 18 18 17 18 19 19 21 20 19 9 12 3 2 8 8 13 9 16 29 24 8 28 36 35 15
10 12 15 18 21 19 18 16 13 12 14 16 17 18 19 18 18 18 19 17 18 17 18 17 15 14 16 16 13 5 4 8 4 8 8 9 14 18 22 11 7 9 22 28 37 21 11
15 15 16 13 11 12 12 13 15 16 17 18 19 19 19 18 17 17 16 14 14 15 18 16 16 13 12 13 10 7 8 10 7 8 10 13 21 17 17 11 19 23 29 32 11 17 29
6 8 10 12 14 16 17 18 18 19 19 19 17 16 15 15 15 15 16 15 16 15 18 17 16 16 8 9 8 8 10 9 11 13 13 16 9 14 7 9 10 17 37 29 27 29 22
10 12 14 15 17 18 18 18 17 16 15 14 13 12 13 13 13 12 11 9 7 13 19 21 21 15 8 8 8 7 10 14 16 15 19 12 13 11 14 23 40 32 30 23 26 32 16
Wind_Direction
270 271 275 276 278 278 277 273 274 272 275 282 289 293 304 313 320 323 325 324 324 330 330 325 316 306 299 297 292 295 290 288 280 277 279 277 272 271 266 265 264 265 271 269 272 268 268
271 275 273 275 278 279 279 277 274 273 273 278 284 287 298 306 313 319 324 322 326 324 319 325 317 310 306 314 300 288 282 281 276 269 274 284 285 278 274 275 270 271 273 272 269 272 271
271 275 274 276 279 281 281 280 278 277 274 275 280 285 288 301 309 315 319 321 324 324 321 313 316 312 306 306 315 309 288 266 271 272 270 281 286 282 280 276 272 274 276 270 275 282 280
274 275 276 279 280 280 283 281 280 278 276 274 278 282 287 297 302 311 316 319 318 321 326 316 315 309 314 308 304 310 298 281 283 276 270 274 273 272 270 268 272 274 277 288 295 288 272
275 276 276 277 278 279 281 280 280 278 277 276 276 278 283 291 298 305 311 315 316 317 319 319 318 316 312 299 298 292 287 281 277 277 276 268 270 268 263 263 269 267 274 283 287 274 278
272 277 280 281 281 282 282 280 280 279 276 275 275 278 283 289 296 302 307 313 318 315 315 316 321 320 304 296 287 278 277 271 269 273 274 265 265 264 260 253 253 273 280 277 280 291 291
273 276 278 280 281 284 282 281 278 276 276 273 274 276 281 287 295 302 306 315 317 319 315 320 319 312 306 289 280 276 264 265 265 265 261 260 259 263 272 273 277 279 272 273 280 294 291
269 272 278 281 283 283 282 282 280 278 274 273 273 274 279 286 294 303 313 317 325 323 317 324 321 312 318 314 308 310 285 265 262 266 262 253 255 274 271 269 267 259 267 276 289 288 297
264 272 278 281 281 281 282 283 281 277 274 273 274 274 279 286 294 302 311 317 326 327 331 329 338 331 326 323 308 301 298 287 274 266 268 258 270 262 281 248 241 258 269 279 288 297 296
262 268 275 278 281 278 280 281 279 277 275 274 273 275 280 286 296 305 310 317 325 325 327 343 329 321 322 325 323 320 294 275 275 275 275 273 267 264 261 256 264 263 270 287 292 300 294
262 266 270 275 280 278 277 277 277 276 274 274 274 278 281 286 295 303 308 313 320 330 321 314 299 307 311 302 293 293 294 288 279 276 278 271 286 275 265 265 274 281 290 288 288 287 291
259 264 268 273 275 278 277 274 276 275 274 273 276 280 285 290 293 299 307 307 315 313 260 276 279 293 300 288 286 282 282 284 285 283 277 281 284 281 277 276 282 281 285 283 281 267 259
259 261 263 273 275 274 274 274 274 272 272 275 279 285 287 289 293 301 300 296 297 223 271 275 274 296 301 298 294 286 285 286 284 290 286 286 283 288 276 277 283 285 307 288 252 197 249
260 267 263 271 274 270 268 268 271 271 272 277 282 284 286 290 295 294 296 284 240 274 269 278 284 294 291 293 290 275 270 285 278 281 288 292 295 266 274 264 258 288 295 250 268 272 283
260 262 262 267 270 267 269 268 268 271 276 279 279 282 283 284 293 292 288 262 266 278 275 277 290 296 290 274 277 285 279 276 288 292 245 274 271 258 275 283 298 296 289 280 271 262 263
263 267 264 267 265 260 262 266 269 271 273 274 273 277 283 280 281 286 280 266 262 272 278 282 281 274 275 275 283 295 288 244 234 246 256 277 291 290 276 285 301 290 279 333 285 274 259
267 260 261 262 260 263 263 262 268 267 276 273 273 275 275 277 275 270 259 260 271 277 279 275 267 266 276 281 285 287 262 279 287 282 298 309 302 283 286 295 286 288 287 278 275 256 273
252 251 268 260 266 261 257 258 262 264 264 272 267 260 268 269 257 255 257 270 277 275 271 268 268 260 266 275 284 281 255 254 278 292 311 310 289 285 289 289 294 281 284 311 267 292 291
255 267 264 263 260 253 266 259 257 262 265 267 260 258 258 256 253 259 269 271 269 266 268 264 258 248 255 259 280 267 266 281 273 285 301 311 293 307 307 311 113 303 297 303 295 295 274
262 262 259 251 250 255 262 270 275 268 264 267 264 246 248 257 259 264 259 255 252 261 248 236 234 241 268 283 288 284 286 280 275 288 303 304 283 268 271 283 297 298 290 287 284 275 281
250 244 245 251 256 263 266 268 270 267 265 266 265 248 254 252 260 257 249 245 237 234 247 273 277 285 283 280 272 275 280 284 290 302 308 300 280 287 287 286 289 290 294 292 290 279 271
247 245 247 256 252 263 264 267 266 266 264 252 250 251 254 253 246 239 238 246 253 271 279 275 265 272 264 272 278 282 288 294 298 305 304 300 289 293 292 297 287 285 289 289 290 294 286
260 263 263 261 265 266 269 270 261 250 247 254 264 262 252 248 243 241 249 265 272 263 257 259 262 265 272 279 283 288 290 293 296 298 301 293 289 289 280 300 291 286 296 301 292 291 286
257 263 263 260 255 259 258 251 248 254 256 252 246 249 258 257 254 247 247 250 255 258 260 267 271 276 281 288 290 295 295 295 293 296 288 288 294 294 284 306 253 286 306 309 336 316 283
258 251 247 251 256 253 248 244 242 242 244 249 248 253 252 253 253 254 253 254 257 262 265 264 268 273 280 289 299 303 313 312 310 313 309 283 316 309 278 292 288 302 285 335 337 312 306
238 238 236 233 228 229 234 238 244 250 256 258 257 255 257 256 256 257 255 257 260 264 267 270 273 279 287 287 292 265 272 291 270 289 303 293 267 307 290 279 281 289 308 312 314 278 313
213 216 222 228 242 251 255 254 256 257 257 257 257 257 257 258 261 259 260 261 261 259 265 268 274 276 284 282 261 240 255 258 264 265 289 291 302 280 278 277 284 290 321 330 341 329 352
220 236 244 250 253 256 260 262 262 260 259 259 259 260 261 261 263 264 259 260 263 261 268 272 283 291 275 238 237 238 242 255 263 273 283 284 280 282 276 289 278 320 316 334 333 352 6
249 256 260 260 260 259 261 261 258 258 261 263 263 265 264 261 259 261 255 253 247 255 272 276 274 277 256 231 233 244 252 267 278 281 296 255 254 270 279 271 297 309 315 319 340 342 359